AirNav   Air Wisconsin pilot careers
 
 1062 users online  

5Z4 Ans Hospital Heliport
Kanakanak, Alaska, USA


FAA INFORMATION EFFECTIVE 01 FEBRUARY 2018

Location

FAA Identifier: 5Z4
Lat/Long: 59-00-06.3100N / 158-31-56.8720W
59-00.105167N / 158-31.947867W
59.0017528 / -158.5324644
(estimated)
Elevation: 100 ft. / 30 m (estimated)
Variation: 20E (1985)
Time zone: UTC -9 (UTC -8 during Daylight Saving Time)

Heliport Operations

Heliport use: Open to the public
Activation date: 06/1967
Control tower: no
ARTCC: ANCHORAGE CENTER
FSS: DILLINGHAM FLIGHT SERVICE STATION [907-842-5275]
Alternate FSS: ENA KENAI FLIGHT SERVICE STATION [1-866-864-1737]
NOTAMs facility: DLG (NOTAM-D service available)
Attendance: UNATNDD
Wind indicator: lighted, WIND CONE BENT AND UNUSABLE.
Segmented circle: no

Heliport Communications

CTAF: 122.9
WX AWOS-3P at DLG (2.7 nm N): 125.0 (907-842-2137)
WX AWOS-3P at CLP (10 nm S): 121.450 (907-868-7311)
WX AWOS-3P at MBA (12 nm W): 120.625 (907-289-2018)

Nearby radio navigation aids

VOR radial/distance  VOR name  Freq  Var
DLG at fieldDILLINGHAM VOR/DME116.4015E

 
NDB name  Hdg/Dist  Freq  Var  ID
WOOD RIVERat field42915EBTS -... - ...

Heliport Services

Airframe service: NONE
Powerplant service: NONE
Bottled oxygen: NONE
Bulk oxygen: NONE

Runway Information

Helipad H1

Dimensions: 200 x 100 ft. / 61 x 30 m
Surface: turf, in good condition
Runway edge lights: medium intensity
Elevation: 100.0 ft.
Gradient: 0.1%
Traffic pattern: leftleft
Markings: none
Runway end identifier lights: no

Heliport Ownership and Management from official FAA records

Ownership: Publicly-owned
Owner: INDIAN HEALTH SERVICES
Manager: MAINTANENCE SUPERINTENDANT
6000 KANAKANAK ROAD, P.O. BOX 130
DILLINGHAM, AK 99576
Phone 907-842-5201

Additional Remarks

GOOD APCHS ALL QUADS; FAVORED APCH OVER WATER TO W.
HELI LOCATED NEAR LARGE BLUFF. BE ALERT FOR STRONG SE GSTY & TURBULENT WND.
WX CAMERA AVBL ON INTERNET AT HTTP://AVCAMS.FAA.GOV

Instrument Procedures

There are no published instrument procedures at 5Z4.

Some nearby airports with instrument procedures:

PADL - Dillingham Airport (3 nm N)
PFCL - Clarks Point Airport (10 nm S)
PAMB - Manokotak Airport (12 nm W)
PANW - New Stuyahok Airport (45 nm NE)
PFWS - South Naknek Nr 2 Airport (51 nm E)
 
Loc | Ops | Rwys | IFR | FBO | Links
Com | Nav | Svcs | Stats | Notes

Crowley
 
Area around 5Z4 (Ans Hospital Heliport)
 
Road maps at: MapQuest Bing Google
 
Aerial photo
No photo
 
Sectional chart

 
Airport distance calculator
Flying to Ans Hospital Heliport? Find the distance to fly.

From to 5Z4

Sunrise and sunset
Times for 24-Feb-2018
 Local
(UTC-9)
 Zulu
(UTC)
Morning civil twilight08:0417:04
Sunrise08:4517:45
Sunset18:5003:50
Evening civil twilight19:3104:31

Current date and time
Zulu (UTC)  24-Feb-2018 18:19:52
Local (UTC-9)  24-Feb-2018 09:19:52
 
METAR
PADL 
3nm N 
241756Z 23020G31KT 5SM -SN BR SCT008 BKN030 M02/M03 A2982 RMK AO2 SLP102 P0000 60000 T10171028 11011 21022 51008
PFCL 
10nm S 
241756Z AUTO 26020G30KT 7SM -SN FEW023 OVC032 M01/M03 A2986 RMK AO2 PK WND 26032/1722 SLP104 P0000 60000 T10111028 11006 21017 53012 FZRANO TSNO
PAMB 
16nm W 
241756Z AUTO 27019G27KT 5SM -SN BR BKN027 BKN032 BKN120 M01/M03 A2984 RMK AO2 PK WND 27031/1709 SLP110 P0000 60000 T10111033 11006 21017 53011 FZRANO $
TAF
PADL 
3nm N 
241727Z 2418/2518 22017G26KT 6SM -SHSN SCT008 OVC030 WS020/27045KT TEMPO 2418/2421 1SM -SN BLSN BKN008 OVC018 FM242100 23015G30KT P6SM SCT030 BKN070 FM250600 22008KT P6SM VCSH SCT008 BKN015 FM251500 18005KT 3SM BR OVC008
NOTAMs
Click for the latest NOTAMs
NOTAMs are issued by the DoD/FAA and will open in a separate window not controlled by AirNav.

 

 
 

Would you like to see your business listed on this page?

 If your business provides an interesting product or service to pilots, flight crews, aircraft, or users of the Ans Hospital Heliport, you should consider listing it here.  To start the listing process, click on the button below
 
Add a business
 

Other Pages about Ans Hospital Heliport

Update a link
 
Copyright © AirNav, LLC. All rights reserved. Privacy Policy  Contact